Baltimore Martin, MD

10:44 PM EDT on May 22, 2017 (GMT -0400)
Martin State

Weather History for KMTN - November, 2013

Change the Weather History Date:

Saturday, November 30, 2013

  Actual Average Record
Temperature  
Mean Temperature 30 °F -  
Max Temperature 37 °F 48 °F 68 °F (2006)
Min Temperature 24 °F 33 °F 24 °F (2013)
Degree Days  
Heating Degree Days 34    
Moisture  
Dew Point 22 °F    
Average Humidity 71    
Maximum Humidity 87    
Minimum Humidity 55    
Precipitation  
Precipitation 0.00 in - - ()
Sea Level Pressure  
Sea Level Pressure 30.67 in    
Wind  
Wind Speed 0 mph (NE)    
Max Wind Speed 6 mph    
Max Gust Speed -    
Visibility 10 miles    
Events      
Averages and records for this station are not official NWS values.
T = Trace of Precipitation, MM = Missing Value Source: NWS Daily Summary

Daily Weather History Graph

Daily Weather History Graph

Search for Another Location

Airport or City:

Trip Planner

Search our weather history database for the weather conditions in past years. The results will help you decide how hot, cold, wet, or windy it might be!

Date:

Astronomy

Nov. 30, 2013 Rise Set
Actual Time 7:05 AM EST 4:43 PM EST
Civil Twilight 6:36 AM EST 5:12 PM EST
Nautical Twilight 6:02 AM EST 5:45 PM EST
Astronomical Twilight 5:30 AM EST 6:18 PM EST
Moon 4:14 AM EST (11/30) 3:05 PM EST (11/30)
Length of Visible Light 10h 36m
Length of Day
9h 37m
Waning Crescent, 7% of the Moon is Illuminated
Nov 30
Waning Crescent
Dec 2
New
Dec 9
First Quarter
Dec 17
Full
Dec 25
Last Quarter

Hourly Weather History & Observations

Time (EST) Temp. Windchill Dew Point Humidity Pressure Visibility Wind Dir Wind Speed Gust Speed Precip Events Conditions
12:15 AM 30.2 °F - 21.2 °F 69% 30.75 in 10.0 mi Calm Calm - N/A   Clear
12:36 AM 30.2 °F - 21.2 °F 69% 30.75 in 10.0 mi Calm Calm - N/A   Clear
12:54 AM 30.2 °F - 21.2 °F 69% 30.75 in 10.0 mi Calm Calm - N/A   Clear
1:15 AM 30.2 °F - 21.2 °F 69% 30.75 in 10.0 mi Calm Calm - N/A   Clear
1:36 AM 30.2 °F - 21.2 °F 69% 30.75 in 10.0 mi Calm Calm - N/A   Clear
1:54 AM 28.4 °F - 21.2 °F 74% 30.75 in 10.0 mi Calm Calm - N/A   Clear
2:15 AM 28.4 °F - 21.2 °F 74% 30.75 in 10.0 mi Calm Calm - N/A   Clear
2:36 AM 28.4 °F - 21.2 °F 74% 30.75 in 10.0 mi Calm Calm - N/A   Clear
2:54 AM 28.4 °F - 21.2 °F 74% 30.75 in 10.0 mi Calm Calm - N/A   Clear
3:15 AM 28.4 °F - 21.2 °F 74% 30.75 in 10.0 mi Calm Calm - N/A   Clear
3:36 AM 28.4 °F - 21.2 °F 74% 30.75 in 10.0 mi Calm Calm - N/A   Clear
3:54 AM 28.4 °F - 21.2 °F 74% 30.74 in 10.0 mi Calm Calm - N/A   Clear
4:15 AM 28.4 °F - 19.4 °F 69% 30.74 in 10.0 mi Calm Calm - N/A   Clear
4:36 AM 28.4 °F - 19.4 °F 69% 30.73 in 10.0 mi Calm Calm - N/A   Clear
4:54 AM 28.4 °F - 21.2 °F 74% 30.74 in 10.0 mi Calm Calm - N/A   Clear
5:15 AM 26.6 °F - 19.4 °F 74% 30.74 in 10.0 mi Calm Calm - N/A   Clear
5:30 AM 26.6 °F - 19.4 °F 74% 30.74 in 10.0 mi Calm Calm - N/A   Clear
5:50 AM 26.6 °F - 19.4 °F 74% 30.74 in 10.0 mi Calm Calm - N/A   Clear
6:45 AM 24.8 °F - 19.4 °F 80% 30.75 in 10.0 mi Calm Calm - N/A   Partly Cloudy
7:45 AM 26.6 °F - 17.6 °F 69% 30.75 in 10.0 mi Calm Calm - N/A   Partly Cloudy
8:45 AM 30.2 °F 24.3 °F 17.6 °F 60% 30.75 in 10.0 mi North 5.8 mph - N/A   Scattered Clouds
9:45 AM 32.0 °F 28.7 °F 17.6 °F 55% 30.73 in 10.0 mi North 3.5 mph - N/A   Overcast
10:45 AM 33.8 °F 29.6 °F 19.4 °F 56% 30.72 in 10.0 mi East 4.6 mph - N/A   Overcast
11:45 AM 35.6 °F 32.8 °F 21.2 °F 56% 30.68 in 10.0 mi ENE 3.5 mph - N/A   Overcast
12:45 PM 37.4 °F - 23.0 °F 56% 30.64 in 10.0 mi Calm Calm - N/A   Overcast
1:50 PM 35.6 °F 31.7 °F 24.8 °F 65% 30.62 in 10.0 mi South 4.6 mph - N/A   Overcast
2:45 PM 37.4 °F - 24.8 °F 60% 30.59 in 10.0 mi Calm Calm - N/A   Overcast
3:45 PM 35.6 °F - 32.0 °F 87% 30.56 in 10.0 mi Calm Calm - N/A   Overcast
4:50 PM 35.6 °F - 23.0 °F 60% 30.54 in 10.0 mi Calm Calm - N/A   Overcast
5:45 PM 33.8 °F - 24.8 °F 70% - - North - - N/A   Overcast
6:45 PM 35.6 °F - 26.6 °F 70% - - North - - N/A   Overcast
7:45 PM 33.8 °F - 24.8 °F 70% - - North - - N/A   Mostly Cloudy
9:45 PM 30.2 °F - 26.6 °F 86% - - North - - N/A   Mostly Cloudy
10:18 PM 32.0 °F - 26.6 °F 80% 30.44 in 10.0 mi Calm Calm - N/A   Overcast
10:36 PM 32.0 °F - 28.4 °F 87% 30.44 in 10.0 mi Calm Calm - N/A   Overcast
10:57 PM 32.0 °F - 26.6 °F 80% 30.43 in 10.0 mi Calm Calm - N/A   Overcast
11:18 PM 32.0 °F - 26.6 °F 80% 30.42 in 10.0 mi Calm Calm - N/A   Mostly Cloudy
11:39 PM 32.0 °F - 26.6 °F 80% 30.41 in 10.0 mi Calm Calm - N/A   Mostly Cloudy
11:57 PM 32.0 °F - 26.6 °F 80% 30.41 in 10.0 mi Calm Calm - N/A   Mostly Cloudy